Newark Heath, OH

2:41 AM EDT on May 25, 2017 (GMT -0400)
Newark Heath

Weather History for KVTA - May, 2013

Change the Weather History Date:

Sunday, May 12, 2013

  Actual Average Record
Temperature  
Mean Temperature 44 °F -  
Max Temperature 53 °F 73 °F 87 °F (1944)
Min Temperature 37 °F 48 °F 28 °F (1938)
Degree Days  
Heating Degree Days 20    
Moisture  
Dew Point 33 °F    
Average Humidity 65    
Maximum Humidity 93    
Minimum Humidity 45    
Precipitation  
Precipitation 0.00 in - - ()
Sea Level Pressure  
Sea Level Pressure 30.03 in    
Wind  
Wind Speed 8 mph (WNW)    
Max Wind Speed 18 mph    
Max Gust Speed 26 mph    
Visibility 10 miles    
Events      
Averages and records for this station are not official NWS values.
T = Trace of Precipitation, MM = Missing Value Source: NWS Daily Summary

Daily Weather History Graph

Daily Weather History Graph

Search for Another Location

Airport or City:

Trip Planner

Search our weather history database for the weather conditions in past years. The results will help you decide how hot, cold, wet, or windy it might be!

Date:

Astronomy

May. 12, 2013 Rise Set
Actual Time 6:17 AM EDT 8:35 PM EDT
Civil Twilight 5:46 AM EDT 9:06 PM EDT
Nautical Twilight 5:09 AM EDT 9:43 PM EDT
Astronomical Twilight 4:28 AM EDT 10:25 PM EDT
Moon 8:11 AM EDT (5/12) 11:01 PM EDT (5/12)
Length of Visible Light 15h 19m
Length of Day
14h 18m
Waxing Crescent, 6% of the Moon is Illuminated
May 12
Waxing Crescent
May 18
First Quarter
May 25
Full
May 31
Last Quarter
Jun 8
New

Hourly Weather History & Observations

Time (EDT) Temp. Windchill Dew Point Humidity Pressure Visibility Wind Dir Wind Speed Gust Speed Precip Events Conditions
12:54 AM 46.0 °F 41.9 °F 37.9 °F 73% 29.96 in 10.0 mi NW 8.1 mph - N/A   Overcast
1:54 AM 45.0 °F 40.6 °F 35.1 °F 68% 29.97 in 10.0 mi NW 8.1 mph - N/A   Overcast
2:54 AM 41.0 °F - 34.0 °F 76% 29.97 in 10.0 mi Calm Calm - N/A   Clear
3:54 AM 37.9 °F 35.5 °F 35.1 °F 89% 29.97 in 10.0 mi West 3.5 mph - N/A   Clear
4:54 AM 37.9 °F - 35.1 °F 89% 29.97 in 10.0 mi Calm Calm - N/A   Clear
5:54 AM 37.0 °F 34.5 °F 34.0 °F 89% 29.98 in 10.0 mi West 3.5 mph - N/A   Clear
6:54 AM 37.0 °F 33.3 °F 35.1 °F 93% 29.99 in 10.0 mi West 4.6 mph - N/A   Clear
7:54 AM 42.1 °F 37.1 °F 37.9 °F 85% 30.00 in 10.0 mi West 8.1 mph - N/A   Clear
8:54 AM 46.0 °F 41.0 °F 36.0 °F 68% 30.00 in 10.0 mi West 10.4 mph 20.7 mph N/A   Clear
9:54 AM 46.9 °F - 32.0 °F 56% 30.01 in 10.0 mi West 12.7 mph - N/A   Scattered Clouds
10:54 AM 46.9 °F - 30.0 °F 52% 30.02 in 10.0 mi WNW 12.7 mph 21.9 mph N/A   Mostly Cloudy
11:54 AM 48.9 °F - 33.1 °F 54% 30.02 in 10.0 mi WNW 8.1 mph 20.7 mph N/A   Overcast
12:54 PM 48.9 °F - 30.9 °F 50% 30.04 in 10.0 mi WNW 15.0 mph 24.2 mph N/A   Overcast
1:54 PM 50.0 °F - 32.0 °F 50% 30.04 in 10.0 mi West 15.0 mph 23.0 mph N/A   Overcast
2:54 PM 52.0 °F - 33.1 °F 49% 30.05 in 10.0 mi West 18.4 mph 26.5 mph N/A   Overcast
3:54 PM 50.0 °F - 30.9 °F 48% 30.04 in 10.0 mi WNW 17.3 mph 21.9 mph N/A   Mostly Cloudy
4:54 PM 52.0 °F - 30.9 °F 45% 30.04 in 10.0 mi WNW 17.3 mph 26.5 mph N/A   Overcast
5:54 PM 52.0 °F - 30.9 °F 45% 30.04 in 10.0 mi WNW 13.8 mph 19.6 mph N/A   Mostly Cloudy
6:54 PM 50.0 °F - 30.9 °F 48% 30.05 in 10.0 mi WNW 9.2 mph - N/A   Mostly Cloudy
7:54 PM 48.9 °F - 30.0 °F 48% 30.05 in 10.0 mi WNW 9.2 mph - N/A   Mostly Cloudy
8:54 PM 45.0 °F 40.6 °F 30.9 °F 58% 30.07 in 10.0 mi WNW 8.1 mph - N/A   Partly Cloudy
9:54 PM 41.0 °F - 30.9 °F 67% 30.10 in 10.0 mi Calm Calm - N/A   Clear
10:54 PM 37.9 °F - 34.0 °F 86% 30.12 in 10.0 mi Calm Calm - N/A   Mostly Cloudy
11:54 PM 39.0 °F 36.8 °F 35.1 °F 86% 30.13 in 10.0 mi NNW 3.5 mph - N/A   Overcast